Weather History for Nueva Ocotepeque, Honduras

Change the Weather History Date:

Tuesday, February 12, 2013

  Actual Average (MHTG) Record (MHTG)
Temperature  
Mean Temperature 76 °F -  
Max Temperature 91 °F 80 °F 87 °F (2014)
Min Temperature 62 °F 57 °F 50 °F (2000)
Cooling Degree Days 12    
Growing Degree Days 26 (Base 50)    
Moisture  
Dew Point 57 °F    
Average Humidity 51    
Maximum Humidity 93    
Minimum Humidity 27    
Precipitation  
Precipitation 0.00 in - - ()
Sea Level Pressure  
Sea Level Pressure 29.88 in    
Wind  
Wind Speed 4 mph ()    
Max Wind Speed 16 mph    
Max Gust Speed 17 mph    
Visibility 6.2 miles    
Events      
Averages and records for this station are not official NWS values.
T = Trace of Precipitation, MM = Missing Value Source: Averaged Metar Reports

Daily Weather History Graph

Daily Weather History Graph

Search for Another Location

Airport:

Trip Planner

Search our weather history database for the weather conditions in past years. The results will help you decide how hot, cold, wet, or windy it might be!

Date:

Astronomy

Feb. 12, 2013 Rise Set
Actual Time 6:15 AM CST 5:54 PM CST
Civil Twilight 5:53 AM CST 6:16 PM CST
Nautical Twilight 5:28 AM CST 6:41 PM CST
Astronomical Twilight 5:02 AM CST 7:06 PM CST
Moon 7:46 AM CST (2/12) 8:14 PM CST (2/12)
Length of Visible Light 12h 22m
Length of Day
11h 38m
Waxing Crescent, 7% of the Moon is Illuminated
Feb 12
Waxing Crescent
Feb 17
First Quarter
Feb 25
Full
Mar 4
Last Quarter
Mar 11
New

Hourly Weather History & Observations

Time (CST) Temp. Heat Index Dew Point Humidity Pressure Visibility Wind Dir Wind Speed Gust Speed Precip Events Conditions
12:58 AM 72.3 °F - 58.6 °F 62% 29.92 in 6.2 mi North 2.3 mph - N/A   Overcast
1:58 AM 70.2 °F - 59.4 °F 69% 29.91 in 6.2 mi NNW 3.5 mph - N/A   Overcast
2:58 AM 67.8 °F - 59.5 °F 75% 29.90 in 6.2 mi SSW 2.3 mph - N/A   Partly Cloudy
3:58 AM 66.7 °F - 58.5 °F 75% 29.91 in 6.2 mi Calm Calm - N/A   Clear
4:58 AM 66.6 °F - 58.5 °F 75% 29.92 in 6.2 mi North 6.9 mph - N/A   Clear
5:58 AM 63.9 °F - 58.6 °F 83% 29.96 in 6.2 mi East 5.8 mph - N/A   Clear
6:00 AM 64 °F - 62 °F 93%  in 6 mi Calm Calm - -   Haze
6:58 AM 62.8 °F - 58.5 °F 86% 29.96 in 6.2 mi NNW 2.3 mph - N/A   Clear
7:58 AM 71.6 °F - 59.5 °F 66% 29.96 in 6.2 mi NNE 4.6 mph - N/A   Clear
8:58 AM 77.0 °F - 60.3 °F 56% 29.96 in 6.2 mi Variable 1.2 mph - N/A   Clear
9:00 AM 72 °F - 64 °F 71%  in 6 mi Calm Calm - -   Haze
9:58 AM 81.7 °F 81.6 °F 57.7 °F 44% 29.97 in 6.2 mi Variable 4.6 mph - N/A   Clear
10:58 AM 84.6 °F 83.5 °F 56.1 °F 38% 29.93 in 6.2 mi Variable 5.8 mph - N/A   Clear
11:58 AM 87.8 °F 85.7 °F 53.4 °F 31% 29.88 in 6.2 mi ESE 9.2 mph - N/A   Partly Cloudy
12:00 PM 88 °F - 64 °F 35%  in 6 mi Calm Calm - -   Haze
12:58 PM 89.8 °F 87.5 °F 53.4 °F 29% 29.84 in 6.2 mi East 9.2 mph - N/A   Partly Cloudy
1:58 PM 90.7 °F 88.3 °F 53.6 °F 28% 29.81 in 6.2 mi Variable 6.9 mph - N/A   Partly Cloudy
2:58 PM 91.2 °F - 52.9 °F 27% 29.78 in 6.2 mi ESE 5.8 mph - N/A   Overcast
3:00 PM 91 °F - 63 °F 29%  in 6 mi South 2.3 mph - -   Haze
3:34 PM 91.4 °F 89.1 °F 53.6 °F 28% 29.91 in 6.2 mi East 16.1 mph 17.3 mph N/A   Overcast
3:58 PM 90.7 °F 88.5 °F 54.0 °F 29% 29.79 in 6.2 mi East 8.1 mph - N/A   Overcast
4:58 PM 87.1 °F 84.9 °F 53.4 °F 31% 29.79 in 6.2 mi East 8.1 mph - N/A   Partly Cloudy
5:58 PM 83.1 °F 82.1 °F 54.3 °F 37% 29.83 in 6.2 mi East 11.5 mph - N/A   Scattered Clouds
6:00 PM 85 °F - 59 °F 31%  in 6 mi Calm Calm - -   Haze
6:58 PM 81.1 °F 80.7 °F 53.8 °F 39% 29.85 in 6.2 mi East 10.4 mph - N/A   Mostly Cloudy
7:58 PM 79.9 °F - 54.5 °F 41% 29.85 in 6.2 mi East 4.6 mph - N/A   Mostly Cloudy
8:58 PM 76.6 °F - 54.3 °F 46% 29.86 in 6.2 mi East 5.8 mph - N/A   Clear
9:58 PM 75.4 °F - 55.4 °F 50% 29.88 in 6.2 mi East 9.2 mph - N/A   Clear
10:58 PM 75.2 °F - 55.8 °F 51% 29.86 in 6.2 mi ESE 5.8 mph - N/A   Clear
11:58 PM 69.4 °F - 56.1 °F 62% 29.86 in 6.2 mi Calm Calm - N/A   Clear